When you browse on this site, cookies collect data to enhance your experience and personalize the content and advertising you see.
Visit our Privacy Policy to learn more. By continuing to use the site, you agree to this use of cookies and data.
  • Em Portugal
  • Lista de países
  • Para 7 dias
  • Temperatura da água
  • Mapas de satélite
  • Mapa do tempo
  • Widgets de tempo
  • user-avatar
    Iniciar Sessão

    Previsão horária em Swietoszow

    Hoje, 21 Março, Quinta-feira

    Tempo Temperatura Precipitação Vento Pressão Humidade
    00:00 +4°C° 0 mm 3 m/s 762 mmHg 66%
    01:00 +4°C° 0 mm 3 m/s 762 mmHg 64%
    02:00 +4°C° 0 mm 3 m/s 762 mmHg 66%
    03:00 +4°C° 0 mm 3 m/s 762 mmHg 67%
    04:00 +3°C° 0 mm 3 m/s 762 mmHg 69%
    05:00 +4°C° 0 mm 3 m/s 762 mmHg 69%
    06:00 +4°C° 0 mm 3 m/s 762 mmHg 70%
    07:00 +4°C° 0 mm 3 m/s 763 mmHg 72%
    08:00 +7°C° 0 mm 3 m/s 763 mmHg 70%
    09:00 +9°C° 0 mm 3 m/s 763 mmHg 69%
    10:00 +11°C° 0 mm 3 m/s 763 mmHg 67%
    11:00 +12°C° 0 mm 3 m/s 763 mmHg 65%
    12:00 +13°C° 0 mm 3 m/s 762 mmHg 63%
    13:00 +14°C° 0 mm 3 m/s 762 mmHg 60%
    14:00 +14°C° 0 mm 3 m/s 762 mmHg 60%
    15:00 +14°C° 0 mm 3 m/s 762 mmHg 60%
    16:00 +14°C° 0 mm 3 m/s 761 mmHg 60%
    17:00 +14°C° 0 mm 2 m/s 761 mmHg 67%
    18:00 +12°C° 0 mm 2 m/s 761 mmHg 74%
    19:00 +11°C° 0 mm 1 m/s 761 mmHg 81%
    20:00 +10°C° 0 mm 1 m/s 761 mmHg 84%
    21:00 +10°C° 0 mm 1 m/s 761 mmHg 86%
    22:00 +10°C° 0 mm 1 m/s 762 mmHg 89%
    23:00 +8°C° 0 mm 2 m/s 762 mmHg 90%

    Amanhã, 22 Março, Sexta-feira

    Tempo Temperatura Precipitação Vento Pressão Humidade
    00:00 +8°C° 0 mm 2 m/s 762 mmHg 91%
    01:00 +8°C° 0 mm 2 m/s 762 mmHg 92%
    02:00 +7°C° 0 mm 2 m/s 762 mmHg 92%
    03:00 +8°C° 0 mm 1 m/s 762 mmHg 93%
    04:00 +8°C° 0 mm 1 m/s 761 mmHg 93%
    05:00 +8°C° 0 mm 1 m/s 762 mmHg 93%
    06:00 +8°C° 0 mm 1 m/s 762 mmHg 93%
    07:00 +8°C° 0 mm 1 m/s 762 mmHg 92%
    08:00 +10°C° 0 mm 1 m/s 762 mmHg 85%
    09:00 +12°C° 0 mm 1 m/s 762 mmHg 77%
    10:00 +15°C° 0 mm 1 m/s 762 mmHg 69%
    11:00 +16°C° 0 mm 1 m/s 762 mmHg 64%
    12:00 +18°C° 0 mm 1 m/s 762 mmHg 59%
    13:00 +19°C° 0 mm 1 m/s 762 mmHg 54%
    14:00 +19°C° 0 mm 1 m/s 761 mmHg 54%
    15:00 +19°C° 0 mm 1 m/s 761 mmHg 53%
    16:00 +19°C° 0 mm 1 m/s 760 mmHg 52%
    17:00 +18°C° 0 mm 1 m/s 760 mmHg 60%
    18:00 +15°C° 0 mm 1 m/s 760 mmHg 67%
    19:00 +13°C° 0 mm 2 m/s 760 mmHg 74%
    20:00 +13°C° 0 mm 2 m/s 760 mmHg 78%
    21:00 +12°C° 0 mm 2 m/s 760 mmHg 82%
    22:00 +10°C° 0 mm 2 m/s 760 mmHg 86%
    23:00 +10°C° 0 mm 2 m/s 759 mmHg 87%

    Depois de amanhã, 23 Março, Sábado

    Tempo Temperatura Precipitação Vento Pressão Humidade
    00:00 +10°C° 0 mm 2 m/s 759 mmHg 88%
    01:00 +9°C° 0 mm 2 m/s 759 mmHg 89%
    02:00 +9°C° 0 mm 2 m/s 759 mmHg 89%
    03:00 +9°C° 0 mm 2 m/s 758 mmHg 89%
    04:00 +10°C° 0 mm 1 m/s 758 mmHg 89%
    05:00 +9°C° 0 mm 2 m/s 758 mmHg 87%
    06:00 +9°C° 0 mm 2 m/s 758 mmHg 85%
    07:00 +9°C° 0 mm 2 m/s 757 mmHg 84%
    08:00 +13°C° 0 mm 2 m/s 757 mmHg 75%
    09:00 +14°C° 0 mm 3 m/s 757 mmHg 66%
    10:00 +17°C° 0 mm 3 m/s 757 mmHg 57%
    11:00 +18°C° 0 mm 3 m/s 757 mmHg 53%
    12:00 +19°C° 0 mm 3 m/s 757 mmHg 49%
    13:00 +20°C° 0 mm 3 m/s 756 mmHg 46%
    14:00 +20°C° 0 mm 3 m/s 756 mmHg 46%
    15:00 +20°C° 0 mm 3 m/s 756 mmHg 47%
    16:00 +20°C° 0 mm 3 m/s 756 mmHg 48%
    17:00 +18°C° 0 mm 3 m/s 756 mmHg 56%
    18:00 +16°C° 0 mm 3 m/s 756 mmHg 65%
    19:00 +13°C° 0 mm 3 m/s 757 mmHg 73%
    20:00 +12°C° 0 mm 3 m/s 757 mmHg 77%
    21:00 +11°C° 0 mm 3 m/s 758 mmHg 81%
    22:00 +10°C° 0 mm 3 m/s 758 mmHg 85%
    23:00 +9°C° 0 mm 3 m/s 758 mmHg 78%

    24 Março, Domingo

    Tempo Temperatura Precipitação Vento Pressão Humidade
    00:00 +8°C° 0 mm 3 m/s 759 mmHg 71%
    01:00 +8°C° 0 mm 3 m/s 759 mmHg 64%
    02:00 +7°C° 0 mm 3 m/s 759 mmHg 62%
    03:00 +7°C° 0 mm 3 m/s 759 mmHg 59%
    04:00 +6°C° 0 mm 2 m/s 759 mmHg 56%
    05:00 +6°C° 0 mm 2 m/s 759 mmHg 57%
    06:00 +6°C° 0 mm 2 m/s 759 mmHg 59%
    07:00 +4°C° 0 mm 3 m/s 759 mmHg 60%
    08:00 +6°C° 0 mm 2 m/s 759 mmHg 54%
    09:00 +7°C° 0 mm 2 m/s 759 mmHg 49%
    10:00 +8°C° 0 mm 2 m/s 759 mmHg 43%
    11:00 +9°C° 0 mm 2 m/s 759 mmHg 40%
    12:00 +10°C° 0 mm 2 m/s 759 mmHg 37%
    13:00 +12°C° 0 mm 2 m/s 758 mmHg 34%
    14:00 +12°C° 0 mm 2 m/s 758 mmHg 34%
    15:00 +12°C° 0 mm 2 m/s 757 mmHg 35%
    16:00 +12°C° 0 mm 2 m/s 757 mmHg 35%
    17:00 +9°C° 0 mm 2 m/s 757 mmHg 41%
    18:00 +8°C° 0 mm 2 m/s 757 mmHg 47%
    19:00 +6°C° 0 mm 2 m/s 757 mmHg 53%
    20:00 +6°C° 0 mm 2 m/s 757 mmHg 56%
    21:00 +6°C° 0 mm 1 m/s 757 mmHg 58%
    22:00 +5°C° 0 mm 1 m/s 758 mmHg 61%
    23:00 +5°C° 0 mm 1 m/s 757 mmHg 63%

    25 Março, Segunda-feira

    Tempo Temperatura Precipitação Vento Pressão Humidade
    00:00 +5°C° 0 mm 1 m/s 757 mmHg 64%
    01:00 +4°C° 0 mm 1 m/s 757 mmHg 66%
    02:00 +4°C° 0 mm 2 m/s 757 mmHg 66%
    03:00 +4°C° 0 mm 2 m/s 757 mmHg 65%
    04:00 +3°C° 0 mm 3 m/s 757 mmHg 65%
    05:00 +3°C° 0 mm 3 m/s 757 mmHg 68%
    06:00 +1°C° 0 mm 4 m/s 757 mmHg 70%
    07:00 +1°C° 0 mm 4 m/s 757 mmHg 73%
    08:00 +2°C° 0 mm 5 m/s 757 mmHg 69%
    09:00 +3°C° 0 mm 6 m/s 756 mmHg 65%
    10:00 +5°C° 0 mm 6 m/s 756 mmHg 62%
    11:00 +5°C° 0.1 mm 6 m/s 756 mmHg 61%
    12:00 +5°C° 0.1 mm 7 m/s 755 mmHg 61%
    13:00 +5°C° 0.1 mm 7 m/s 755 mmHg 61%
    14:00 +5°C° 0.1 mm 7 m/s 755 mmHg 62%
    15:00 +5°C° 0.1 mm 7 m/s 754 mmHg 62%
    16:00 +5°C° 0.1 mm 7 m/s 754 mmHg 63%
    17:00 +5°C° 0.2 mm 7 m/s 754 mmHg 65%
    18:00 +4°C° 0.2 mm 7 m/s 754 mmHg 67%
    19:00 +4°C° 0.2 mm 6 m/s 754 mmHg 69%
    20:00 +4°C° 0.2 mm 6 m/s 754 mmHg 72%
    21:00 +3°C° 0.2 mm 6 m/s 754 mmHg 76%
    22:00 +3°C° 0.2 mm 6 m/s 754 mmHg 79%
    23:00 +2°C° 0.2 mm 6 m/s 753 mmHg 78%

    26 Março, Terça-feira

    Tempo Temperatura Precipitação Vento Pressão Humidade
    00:00 +2°C° 0.2 mm 5 m/s 753 mmHg 77%
    01:00 +1°C° 0.2 mm 5 m/s 753 mmHg 76%
    02:00 +1°C° 0 mm 5 m/s 753 mmHg 77%
    03:00 0°C° 0 mm 5 m/s 753 mmHg 78%
    04:00 0°C° 0 mm 5 m/s 753 mmHg 80%
    05:00 0°C° 0 mm 5 m/s 753 mmHg 79%
    06:00 0°C° 0 mm 5 m/s 753 mmHg 78%
    07:00 -1°C° 0 mm 6 m/s 753 mmHg 77%
    08:00 +1°C° 0.1 mm 6 m/s 754 mmHg 68%
    09:00 +2°C° 0.1 mm 6 m/s 754 mmHg 60%
    10:00 +3°C° 0.1 mm 7 m/s 754 mmHg 52%
    11:00 +4°C° 0 mm 7 m/s 755 mmHg 46%
    12:00 +5°C° 0 mm 7 m/s 755 mmHg 40%
    13:00 +6°C° 0 mm 7 m/s 755 mmHg 34%
    14:00 +6°C° 0 mm 7 m/s 755 mmHg 37%
    15:00 +7°C° 0 mm 6 m/s 755 mmHg 40%
    16:00 +5°C° 0 mm 6 m/s 755 mmHg 43%
    17:00 +5°C° 0 mm 5 m/s 756 mmHg 47%
    18:00 +4°C° 0 mm 4 m/s 756 mmHg 51%
    19:00 +3°C° 0 mm 3 m/s 757 mmHg 55%
    20:00 +2°C° 0 mm 3 m/s 757 mmHg 59%
    21:00 +2°C° 0 mm 2 m/s 758 mmHg 63%
    22:00 +1°C° 0 mm 2 m/s 758 mmHg 67%
    23:00 +1°C° 0 mm 2 m/s 759 mmHg 70%
    Mostrar mais